Location: Newark
(25.0000°N, 73.5000°E)
Time: 22:19:24
(UTC+00:00)

RS-15 - Visible Passes

Search period start: 21 February 2020 00:00
Search period end: 02 March 2020 00:00
Orbit: 1899 x 2145 km, 64.8° (Epoch: 21 February)

Date Brightness Start Highest point End Pass type
(mag) Time Alt. Az. Time Alt. Az. Time Alt. Az.
21 Feb 8.0 13:57:09 10° S 14:07:56 53° ESE 14:18:22 10° NE visible
21 Feb 9.1 16:10:45 10° WSW 16:20:23 33° NW 16:29:55 10° N visible
21 Feb 9.6 23:09:48 10° N 23:18:46 27° NE 23:27:56 10° ESE visible
22 Feb 8.4 13:22:08 10° S 13:32:08 38° ESE 13:41:49 10° NE visible
22 Feb 8.7 15:33:35 10° SW 15:44:04 45° WNW 15:54:24 10° NNE visible
22 Feb 9.9 22:34:45 10° N 22:42:07 19° NE 22:49:36 10° E visible
23 Feb 8.1 00:44:28 10° NNW 00:55:49 89° ENE 01:07:41 10° SSE visible
23 Feb 8.3 14:56:54 10° SW 15:07:54 61° WNW 15:18:41 10° NNE visible
23 Feb 10.0 17:19:55 10° NW 17:22:44 11° NW 17:25:35 10° NNW visible
23 Feb 10.0 22:00:24 10° NNE 22:05:14 13° NE 22:10:07 10° ENE visible
24 Feb 8.4 00:08:33 10° NNW 00:19:47 68° ENE 00:31:29 10° SE visible
24 Feb 8.0 14:20:36 10° SSW 14:31:51 82° WNW 14:42:49 10° NNE visible
24 Feb 9.8 16:39:30 10° W 16:45:46 16° NW 16:52:03 10° N visible
24 Feb 8.7 23:32:48 10° NNW 23:43:39 51° ENE 23:54:53 10° SE visible
25 Feb 7.9 13:44:41 10° SSW 13:55:53 76° ESE 14:06:47 10° NNE visible
25 Feb 9.6 16:00:53 10° W 16:09:04 23° NW 16:17:13 10° N visible
25 Feb 9.1 22:57:12 10° N 23:07:23 38° ENE 23:17:52 10° ESE visible
26 Feb 8.1 13:09:10 10° S 13:20:01 56° ESE 13:30:32 10° NE visible
26 Feb 9.3 15:23:05 10° WSW 15:32:32 32° NW 15:41:57 10° N visible
26 Feb 9.5 22:21:47 10° N 22:30:57 28° NE 22:40:20 10° ESE visible
27 Feb 8.0 00:32:43 10° NNW 00:43:52 67° WSW 00:55:34 10° S visible
27 Feb 8.9 14:45:51 10° SW 14:56:13 43° WNW 15:06:27 10° NNE visible
27 Feb 9.7 21:46:41 10° N 21:54:21 20° NE 22:02:08 10° E visible
27 Feb 8.0 23:56:35 10° NNW 00:07:56 88° WSW 00:19:47 10° SSE visible
28 Feb 8.5 14:09:05 10° SW 14:20:01 59° WNW 14:30:46 10° NNE visible
28 Feb 10.1 16:33:15 10° NW 16:35:01 10° NW 16:36:48 10° NNW visible
28 Feb 10.0 21:12:10 10° NNE 21:17:30 14° NE 21:22:53 10° ENE visible
28 Feb 8.2 23:20:38 10° NNW 23:31:54 71° ENE 23:43:39 10° SSE visible
29 Feb 8.2 13:32:44 10° SSW 13:43:57 78° WNW 13:54:55 10° NNE visible
29 Feb 10.0 15:52:06 10° WNW 15:58:00 16° NW 16:03:56 10° N visible
29 Feb 8.6 22:44:51 10° NNW 22:55:47 53° ENE 23:07:08 10° SE visible
01 Mar 8.6 00:57:58 10° NW 01:07:37 34° WSW 01:17:41 10° SSW visible
01 Mar 9.8 15:13:20 10° W 15:21:15 22° NW 15:29:11 10° N visible
01 Mar 9.0 22:09:14 10° N 22:19:32 39° ENE 22:30:11 10° ESE visible
